GFSSW_sfc_thetae_108.txt.gz
Theta_e
317 317 317 316 315 314 313 313 313 313 313 314 313 313 314 314 314 308 301 305 308 319 322 306 306 308 303 301 302 299 290 287 292 296 298 303 301 307 308 311 312 315 316 318 322
315 316 316 316 316 315 314 313 313 312 312 312 313 314 313 314 307 303 311 319 324 328 307 301 300 304 297 298 299 294 288 291 299 300 299 303 299 303 304 304 308 311 316 317 317
314 314 315 315 316 316 315 314 313 314 313 313 313 313 313 313 301 303 322 323 325 327 307 304 301 300 296 295 295 294 291 297 301 303 301 300 301 303 302 300 304 305 308 309 311
314 314 314 314 314 315 316 316 313 314 314 313 313 312 314 307 294 312 334 328 331 318 305 301 297 293 292 293 297 290 297 299 301 303 302 301 303 302 301 303 307 307 309 308 306
314 314 314 313 313 314 314 315 315 313 314 313 312 312 308 300 299 311 335 329 323 306 301 298 295 297 293 294 295 292 297 299 302 302 301 302 301 302 302 306 307 307 309 306 306
314 314 314 314 313 314 314 314 315 313 314 313 313 313 304 290 306 322 320 317 308 303 301 298 300 302 298 297 294 297 298 299 300 300 299 299 301 301 304 307 306 305 304 305 306
315 315 314 314 314 314 314 313 313 314 312 314 313 313 304 298 311 317 310 304 305 306 303 303 303 301 299 298 299 298 294 297 298 299 298 301 297 298 304 305 304 304 304 305 305
316 315 315 315 315 314 313 313 312 315 314 314 314 309 299 313 311 308 308 307 308 307 308 310 308 301 300 301 300 295 293 288 295 299 301 299 293 300 303 303 302 303 304 307 306
316 315 315 315 315 314 313 312 313 317 315 314 307 303 301 318 312 312 310 309 309 307 307 312 307 301 301 294 289 291 287 290 295 299 298 296 294 300 303 302 301 303 303 304 305
315 315 315 315 314 314 312 311 313 315 313 314 312 301 306 308 311 309 311 312 309 308 304 303 297 294 292 289 284 288 288 291 291 296 296 295 295 300 301 300 300 301 302 303 304
315 314 313 314 314 313 308 302 306 305 307 302 304 304 308 315 315 308 306 305 308 301 294 297 291 289 291 293 294 293 291 291 295 298 295 293 294 296 299 297 299 300 300 302 303
315 314 313 313 313 313 307 298 305 304 300 310 309 307 309 314 307 304 306 299 302 294 296 293 289 295 297 297 295 294 291 291 294 298 296 293 293 296 297 298 299 300 301 301 302
314 313 312 312 312 306 302 302 308 309 298 304 311 309 309 311 306 303 302 300 300 296 294 290 294 300 298 296 295 294 291 292 292 297 296 293 291 293 298 299 301 301 301 302 303
311 312 312 311 305 302 302 310 308 307 292 299 302 308 310 309 303 310 303 299 298 296 296 293 299 298 296 295 297 292 297 296 295 291 286 293 284 289 294 297 299 300 300 300 303
311 312 311 312 303 299 309 309 307 304 283 304 303 312 308 303 303 304 309 303 296 297 296 293 295 295 294 295 298 293 298 296 295 289 286 289 284 288 293 294 296 299 301 303 303
311 311 311 306 304 304 309 309 307 293 285 299 303 301 301 304 303 304 304 305 305 298 297 296 301 298 297 299 299 299 295 292 290 287 281 286 286 285 290 293 296 301 304 306 304
311 312 309 308 300 308 307 305 290 286 304 298 298 299 299 298 300 300 298 295 292 288 289 295 296 299 300 295 297 295 288 281 280 280 280 290 287 288 295 301 302 303 303 303 304
310 309 306 307 306 306 306 296 284 298 300 307 303 299 295 298 298 298 296 293 297 294 289 288 288 298 302 297 293 291 288 282 277 278 281 291 285 291 301 305 306 305 303 303 302
308 302 304 307 308 308 301 289 291 300 302 300 301 295 295 299 299 297 295 295 297 297 289 291 292 302 305 305 301 295 289 292 286 286 281 286 291 298 304 303 305 304 304 303 302
302 299 303 314 312 307 297 294 299 306 303 302 295 300 296 298 299 298 296 302 300 302 301 296 290 299 301 302 300 297 299 289 287 279 277 284 287 290 297 298 301 301 302 304 304
298 301 312 316 313 302 293 298 304 308 305 301 298 296 297 298 298 297 299 299 303 300 300 295 292 293 297 294 292 293 291 292 291 289 281 277 284 296 298 299 299 302 303 302 304
297 297 313 314 298 299 296 304 305 305 306 303 302 300 297 296 295 294 296 298 303 301 295 295 292 288 292 298 299 294 291 292 286 283 287 280 283 300 298 297 299 299 304 305 307
293 297 312 311 294 295 303 302 305 305 301 300 300 300 299 295 290 296 297 302 301 301 296 295 287 281 284 292 296 293 294 296 295 293 289 287 288 300 300 299 300 298 300 302 305
294 294 302 304 303 298 299 299 299 306 302 301 299 299 295 293 294 292 295 300 302 302 306 299 289 285 280 285 290 289 291 291 292 288 289 289 289 295 298 298 298 299 300 300 301
296 297 300 295 298 297 298 299 297 298 299 299 296 296 294 288 290 290 293 294 300 304 297 292 285 287 289 291 291 290 290 290 288 288 285 288 289 292 295 296 299 300 299 300 301
297 295 298 298 301 298 296 295 297 297 297 295 293 296 293 289 290 288 290 290 290 296 292 292 285 288 286 291 290 288 290 291 291 290 290 290 290 295 296 295 296 297 299 298 298
303 302 296 295 297 296 294 297 296 297 297 297 294 292 292 293 294 292 293 294 293 291 289 288 287 284 280 288 287 282 286 288 290 292 291 287 291 296 295 296 294 295 297 298 298

GFSSW_sfc_thetae_111.txt.gz
Theta_e
315 315 315 316 316 315 315 314 313 313 313 313 313 313 313 313 313 306 301 303 305 320 322 309 308 306 302 300 302 300 290 288 292 295 296 300 299 303 305 306 310 313 317 321 332
314 314 315 315 314 316 316 314 314 313 313 312 313 313 313 313 305 301 309 317 320 325 305 300 300 303 297 298 299 294 288 292 298 300 298 298 298 300 303 304 306 310 313 315 337
314 314 314 314 314 314 314 315 314 314 314 313 313 313 312 312 300 296 317 321 324 327 306 302 301 301 294 297 296 293 291 297 299 302 299 298 300 302 302 300 303 304 306 308 310
314 314 315 315 314 313 314 314 314 314 314 314 313 312 313 306 286 306 332 323 325 318 307 300 297 293 293 293 296 292 296 298 299 302 297 298 301 300 299 301 305 305 307 306 305
315 315 316 315 315 314 314 314 314 314 313 313 312 311 308 297 295 303 335 330 318 313 302 298 294 294 293 294 294 291 296 298 300 299 297 300 299 299 300 304 305 305 306 304 304
316 316 316 316 316 315 314 314 313 313 312 313 312 312 302 288 299 315 319 318 316 302 300 298 296 298 296 296 293 296 296 298 298 297 297 298 299 299 302 306 305 303 303 303 303
316 316 316 316 315 315 315 314 313 312 313 313 313 310 303 298 308 314 315 311 308 305 300 300 300 301 299 295 297 296 293 295 296 298 297 299 296 297 303 304 303 302 302 302 303
316 315 316 316 315 314 314 314 313 313 313 313 314 309 299 310 310 308 305 303 305 304 304 302 302 298 297 298 297 293 292 287 295 297 299 299 292 299 303 301 300 301 302 303 303
315 314 314 314 314 314 314 313 312 314 315 314 308 302 297 315 311 311 308 305 304 304 304 309 304 300 298 294 290 290 286 289 293 298 297 295 291 299 301 300 299 300 301 302 301
314 313 314 313 313 313 313 311 311 315 313 313 311 300 302 305 311 311 308 309 306 303 303 301 296 293 290 290 284 287 287 290 291 295 295 293 293 297 300 298 299 300 300 301 302
315 313 313 313 313 312 310 301 304 301 306 301 303 302 305 313 313 306 309 307 306 301 294 295 291 288 292 293 294 292 290 290 293 296 294 292 292 295 298 295 296 297 298 300 301
313 313 312 312 312 312 310 298 302 303 298 307 307 306 308 311 306 306 307 300 298 293 294 291 288 294 295 295 293 292 289 289 293 295 293 292 292 295 296 295 296 298 299 299 299
312 312 312 312 311 306 303 301 307 305 296 303 308 307 307 308 304 305 301 298 297 293 291 289 292 297 295 293 293 291 289 289 291 295 294 291 289 292 296 297 299 298 298 299 300
311 311 311 312 304 301 300 307 307 305 291 297 304 307 309 309 303 309 302 299 296 294 293 291 295 295 293 293 293 288 295 295 293 289 284 291 282 288 293 294 296 298 297 298 300
311 311 311 311 304 300 306 306 304 301 282 301 302 312 308 303 303 304 304 299 294 295 294 292 293 293 292 293 296 292 296 294 293 288 285 286 283 287 291 292 294 297 299 300 300
310 310 311 307 304 305 307 306 305 292 284 298 302 301 300 301 301 303 303 304 302 296 294 294 298 296 295 297 297 298 293 290 287 285 280 285 285 284 289 292 294 298 303 303 303
310 310 308 308 298 304 303 302 291 285 301 296 296 299 298 298 299 299 297 294 292 289 289 294 294 297 299 293 295 292 286 280 279 279 279 287 284 286 292 297 300 301 301 300 301
309 308 306 307 306 307 303 296 285 295 299 306 300 298 294 297 296 297 295 291 294 293 288 288 288 296 299 296 292 289 287 281 277 277 280 289 283 288 299 302 303 302 300 301 301
307 300 300 304 308 304 298 288 289 298 303 302 300 294 293 297 296 295 293 292 295 294 288 287 289 301 302 303 301 293 286 289 284 284 281 284 289 295 300 300 302 301 302 301 300
303 298 299 308 308 304 296 292 297 304 306 302 295 298 292 295 296 292 292 299 298 299 298 294 288 298 300 300 300 297 298 288 285 279 277 282 285 287 295 297 300 299 300 300 301
296 296 308 310 309 300 292 296 302 308 306 301 298 296 297 296 297 295 295 298 300 299 299 294 291 291 295 292 291 292 289 290 289 285 279 276 283 294 297 296 297 298 299 300 301
297 291 311 312 297 297 296 302 303 304 307 303 302 300 297 296 294 295 296 298 302 302 294 294 290 286 289 294 297 292 290 290 285 284 283 280 282 296 296 296 297 298 301 301 305
294 294 308 311 294 296 300 302 305 302 302 301 299 299 299 295 291 295 296 301 302 301 296 295 287 281 281 289 292 291 291 293 290 290 288 286 285 298 299 298 298 298 299 300 302
295 293 302 305 302 297 298 299 299 305 302 301 298 298 295 293 293 293 294 299 302 301 304 298 287 283 278 283 288 286 289 290 288 283 287 287 288 294 296 298 298 297 297 297 298
295 297 299 294 298 297 297 298 298 297 301 299 295 296 294 289 290 289 292 294 300 302 296 291 284 286 288 290 290 288 288 288 286 289 284 285 288 291 294 295 297 295 297 297 298
296 297 300 297 300 297 295 294 296 296 296 294 293 294 293 289 289 287 289 289 290 294 290 290 283 285 284 289 288 287 288 288 288 289 288 288 288 293 293 293 295 295 296 296 296
302 303 297 296 296 296 295 294 296 295 296 297 295 293 292 292 293 292 291 292 291 291 288 287 285 281 279 286 285 280 284 286 288 289 288 284 288 294 293 294 293 293 295 296 297

GFSSW_sfc_thetae_114.txt.gz
Theta_e
315 315 315 315 315 315 316 315 314 314 313 313 313 314 313 313 312 307 300 304 307 317 323 311 307 305 302 300 301 297 289 288 291 293 296 300 299 302 303 302 308 312 316 321 342
315 314 314 315 315 314 315 315 315 314 314 313 312 312 313 313 306 301 308 316 318 322 303 303 302 302 297 297 299 296 289 291 297 297 296 298 300 300 301 302 304 309 311 338 341
315 315 316 316 316 315 314 314 315 315 314 314 313 312 312 310 298 296 316 318 320 322 301 301 304 301 296 297 296 294 291 297 299 298 298 297 298 301 300 298 301 303 305 316 332
316 316 316 315 315 316 315 315 315 314 314 313 314 312 311 306 284 302 327 323 322 318 301 299 298 297 295 293 296 292 296 298 299 301 300 297 299 299 301 302 304 305 306 306 317
316 316 316 315 315 315 314 315 315 314 313 312 312 312 307 296 295 300 331 323 316 310 299 296 294 294 293 296 295 293 296 298 300 299 297 299 297 299 300 304 304 303 305 304 304
316 315 315 315 315 315 315 314 314 314 313 312 312 311 300 289 299 313 324 315 313 303 299 297 295 298 296 295 294 295 297 298 297 297 294 296 297 297 300 304 303 302 302 303 303
316 316 314 314 314 315 315 314 314 313 313 313 313 309 302 296 307 314 314 309 311 302 299 298 299 299 298 294 296 295 293 295 295 296 296 296 293 294 302 303 302 301 301 301 302
315 315 314 314 314 314 314 314 314 314 313 313 315 307 297 309 309 307 308 303 306 302 302 301 300 297 296 297 296 293 291 288 294 296 298 297 289 298 302 301 300 300 300 301 301
314 314 314 313 313 313 313 313 313 316 314 314 308 303 295 312 309 311 306 302 302 302 302 305 300 296 297 293 289 290 286 288 293 297 297 294 290 298 299 298 298 299 299 300 301
314 314 313 313 313 313 313 313 311 315 312 311 310 300 301 302 310 308 306 304 301 300 298 298 296 292 290 289 283 287 288 289 290 295 294 291 292 296 298 298 298 298 299 300 300
313 312 312 312 312 312 310 302 304 302 305 299 300 301 303 309 311 306 307 305 304 298 292 295 290 287 290 292 293 292 290 289 292 295 292 290 291 294 297 295 295 296 297 298 299
313 312 312 312 312 312 309 300 300 300 296 305 305 304 307 309 303 305 308 300 298 292 293 289 287 293 295 294 293 291 289 288 292 295 292 292 291 294 296 296 296 296 297 298 300
311 312 312 312 311 306 304 301 305 304 293 300 306 304 306 307 302 303 304 298 295 291 290 287 291 296 294 292 291 289 288 289 290 293 292 291 289 291 296 296 297 298 298 299 300
311 310 312 311 303 302 300 306 306 304 289 295 302 306 307 306 301 308 302 299 295 291 290 289 293 294 292 291 292 286 293 294 292 289 284 290 282 288 292 293 296 297 297 298 299
310 310 311 311 304 300 303 304 303 299 281 299 302 310 309 303 303 302 300 296 293 294 293 290 292 290 289 292 294 291 295 292 292 287 284 285 282 286 290 291 294 295 298 301 302
309 309 310 307 305 304 305 304 303 289 282 296 301 300 300 302 303 302 299 300 299 294 293 293 296 295 294 295 295 296 291 288 286 284 280 284 284 283 287 290 293 298 301 303 302
308 308 307 307 299 303 304 300 289 284 298 295 295 299 298 297 298 299 296 294 291 287 286 291 292 295 297 291 293 290 285 279 278 278 279 285 283 285 291 295 298 299 301 301 301
307 306 306 306 306 304 301 294 285 292 295 305 299 299 294 296 296 296 293 290 293 293 290 287 285 293 297 294 290 288 287 280 276 277 279 287 282 287 296 301 301 301 300 300 299
307 303 298 300 306 304 298 289 288 294 303 300 299 293 292 295 295 294 292 291 294 294 289 288 290 300 301 299 297 289 284 288 282 283 280 282 288 293 298 299 300 300 301 299 299
302 299 297 305 307 301 297 292 294 303 304 302 294 296 290 294 293 291 291 296 297 297 297 294 289 298 300 300 298 294 294 286 284 278 277 281 283 286 293 295 298 299 299 300 300
301 292 303 307 306 299 292 293 299 306 306 301 297 296 295 295 295 293 292 297 299 297 297 293 290 291 294 291 290 292 289 288 287 283 278 277 282 293 295 296 295 296 299 299 302
298 288 307 307 297 295 292 299 301 304 306 303 302 299 298 295 294 294 294 296 301 299 293 293 289 286 289 293 296 291 289 289 283 282 281 280 281 295 296 296 297 296 299 299 300
293 294 305 310 292 292 298 300 303 302 302 300 298 300 299 295 292 295 295 299 301 300 295 295 287 281 281 288 292 289 290 290 288 286 283 283 284 297 297 297 298 297 298 298 299
295 289 301 304 302 297 296 297 298 305 303 302 298 298 295 293 295 294 294 300 302 301 304 300 289 284 280 282 287 286 288 288 286 281 282 284 286 293 295 296 295 295 296 297 297
296 294 299 293 297 298 297 296 296 296 301 301 296 296 293 289 290 290 293 296 298 301 296 292 285 285 286 289 289 287 287 287 285 285 282 284 287 290 293 293 294 295 296 296 297
295 296 299 296 298 298 296 294 296 296 295 294 293 294 293 289 290 288 290 291 291 294 291 290 284 284 283 288 287 286 287 287 287 287 286 287 287 293 294 293 294 295 295 295 296
299 304 298 295 295 295 294 294 293 297 297 298 296 293 291 291 292 292 292 291 293 292 288 287 285 282 280 285 284 280 284 286 286 288 287 283 287 292 292 294 293 293 295 296 296

GFSSW_sfc_thetae_120.txt.gz
Theta_e
317 316 316 316 317 316 317 316 315 315 316 315 315 314 313 314 314 312 307 311 314 318 318 316 315 314 315 311 311 313 306 304 305 306 308 313 312 315 315 314 320 329 329 339 354
318 317 317 317 317 317 317 316 316 315 315 316 315 315 314 313 311 307 317 317 318 318 312 311 310 312 309 313 308 310 307 308 311 309 306 309 309 312 312 313 319 324 337 343 351
317 317 317 318 317 317 317 316 316 316 315 315 315 315 313 312 305 304 325 322 319 320 315 312 313 311 310 314 308 307 307 312 312 308 312 310 310 311 311 312 316 320 331 343 347
316 316 316 316 317 317 316 316 316 316 316 315 314 314 312 310 294 310 318 323 321 317 312 310 308 306 308 309 311 307 310 310 306 310 311 308 311 309 309 317 316 315 320 344 345
316 316 316 315 315 315 315 315 316 315 315 315 314 313 310 304 303 310 321 324 320 315 309 307 306 306 306 310 309 307 306 303 307 308 311 312 310 309 309 313 316 316 315 331 345
316 317 316 315 315 315 315 315 315 315 314 315 315 314 307 298 311 313 321 322 314 312 309 308 307 309 307 309 309 308 307 307 307 308 308 309 307 311 311 314 314 315 315 317 332
316 316 315 315 315 315 314 315 314 314 313 315 316 312 305 304 312 313 318 320 315 312 308 309 310 307 311 310 315 311 308 311 308 307 308 311 306 305 311 312 312 314 316 315 317
316 316 315 314 314 314 314 314 314 314 315 317 316 309 302 314 317 315 315 316 317 313 308 310 311 309 308 313 307 307 306 303 308 309 309 307 301 310 313 311 310 313 314 315 317
315 314 314 313 313 314 314 313 313 314 315 316 311 306 303 315 310 314 318 313 314 310 308 309 308 306 306 302 299 302 298 298 299 303 303 304 302 309 313 310 310 312 314 314 316
314 313 313 312 312 313 313 312 313 313 313 313 310 302 306 304 310 313 317 314 307 304 303 303 303 300 301 300 292 295 296 298 294 301 300 299 299 304 310 309 309 310 314 316 315
312 312 312 312 312 312 311 307 306 303 306 304 306 306 305 310 315 311 313 308 306 303 297 300 296 294 298 301 301 299 297 297 299 302 301 299 298 302 307 309 309 311 312 314 315
312 311 311 311 311 312 310 302 306 308 302 308 308 308 311 312 307 308 310 302 301 297 300 297 294 299 301 301 300 299 297 297 300 302 302 301 300 303 306 308 310 311 312 313 315
311 310 310 310 311 309 306 306 314 312 302 305 309 307 308 310 306 305 306 305 299 297 298 296 298 301 299 299 298 299 298 298 297 302 302 301 299 302 306 308 309 311 313 314 315
310 310 309 309 306 307 304 311 314 313 298 300 303 307 310 309 303 309 309 306 301 297 298 298 301 299 298 298 300 296 301 300 299 298 294 302 292 299 304 305 308 310 311 313 316
309 309 308 308 304 301 308 315 312 306 286 302 304 315 312 305 306 306 310 308 299 298 300 297 298 298 298 299 302 299 303 301 300 298 298 298 295 299 304 301 305 309 311 315 317
310 310 308 306 305 307 312 312 306 292 285 299 306 303 304 306 306 307 305 310 308 300 301 301 305 303 302 303 303 304 301 300 300 299 292 297 296 297 300 302 305 309 311 315 317
309 309 307 306 300 309 312 303 290 287 300 298 301 304 303 302 302 302 299 299 298 295 295 299 299 303 304 300 303 302 299 292 290 291 290 299 296 299 304 305 307 309 311 314 317
308 307 307 308 310 309 307 293 286 294 296 305 303 304 300 301 299 299 297 295 301 300 297 293 292 299 303 301 298 299 299 293 286 289 292 298 292 299 306 309 311 312 314 315 316
305 308 306 308 309 306 298 287 292 296 300 300 301 298 298 299 301 297 297 295 298 301 296 295 294 302 303 304 303 299 297 302 295 297 293 296 299 304 309 308 310 311 313 314 316
303 302 303 307 310 302 293 290 296 302 303 304 297 300 296 298 297 297 295 301 298 301 305 300 294 300 302 305 304 302 304 295 296 289 287 293 294 298 303 306 310 310 312 313 314
303 296 308 308 306 295 290 293 298 304 305 300 299 298 299 298 300 297 297 300 301 299 303 302 300 298 302 299 298 299 299 299 300 297 291 289 295 305 306 309 309 310 310 311 312
300 290 309 307 294 295 293 295 299 302 305 303 302 299 300 300 298 300 299 300 303 303 298 302 299 294 297 303 305 304 300 301 295 294 297 296 296 309 310 310 311 309 310 311 313
295 297 306 304 290 294 299 298 301 301 301 300 299 298 302 301 296 300 300 305 306 304 301 304 301 292 292 298 302 301 303 303 302 303 297 294 297 309 310 310 310 308 309 309 311
296 291 299 300 296 288 290 298 297 304 302 300 299 300 297 298 302 299 300 303 305 304 310 307 301 298 292 296 301 298 300 302 302 297 296 297 298 305 307 308 310 309 309 309 310
298 294 296 289 292 292 291 296 298 297 302 300 295 296 291 293 297 300 302 302 305 303 306 305 297 299 298 299 300 299 299 299 298 300 295 297 297 302 306 308 308 307 307 307 308
293 292 295 294 296 291 291 290 297 298 298 292 293 296 293 290 296 297 302 302 301 304 304 306 297 300 295 296 296 294 297 298 297 297 297 297 297 303 306 306 305 306 306 306 307
301 300 294 294 295 291 289 291 294 299 299 299 297 295 294 295 299 301 305 305 304 304 302 301 299 298 292 294 292 290 294 295 296 298 298 294 299 302 301 304 306 307 307 307 307

GFSSW_sfc_thetae_126.txt.gz
Theta_e
318 319 319 319 319 318 319 319 318 318 318 318 317 317 317 317 316 313 306 312 316 323 324 312 312 314 315 311 314 315 305 303 305 309 312 318 318 324 327 323 323 324 340 344 346
317 317 318 318 318 318 317 317 318 318 318 318 318 317 316 316 312 308 318 325 325 322 312 308 307 309 308 309 310 308 304 304 311 313 311 316 316 320 320 318 318 322 345 347 345
317 317 318 318 317 318 317 317 317 317 318 318 318 317 316 315 307 308 330 327 328 322 312 309 308 309 305 308 308 308 304 309 311 315 316 317 316 321 313 315 318 319 327 345 343
316 316 317 318 317 317 317 316 316 317 317 317 317 317 316 313 298 309 330 332 330 316 310 307 306 303 304 302 308 303 309 310 312 315 316 314 318 313 313 316 320 322 325 333 343
316 316 316 316 316 316 316 316 316 316 316 316 316 316 314 307 307 317 331 331 320 313 307 305 304 303 301 304 305 304 307 311 312 314 313 317 312 312 312 317 320 319 321 324 337
316 316 315 315 315 316 316 316 316 315 315 315 316 316 309 300 318 320 318 317 315 311 307 307 305 307 304 304 303 306 307 309 313 313 314 311 314 313 313 318 319 318 317 319 330
316 315 315 314 313 315 315 315 315 315 315 315 315 313 306 305 319 321 316 313 316 314 306 309 309 306 306 303 307 306 303 307 311 312 311 314 307 308 314 316 316 319 318 320 320
315 315 314 313 313 313 313 314 314 314 315 315 315 311 301 315 319 316 318 314 315 319 314 311 310 308 306 307 304 301 303 302 310 312 313 311 302 312 317 315 314 319 319 320 320
315 314 314 313 312 312 312 312 312 314 315 315 311 309 301 317 311 316 318 311 315 317 315 312 308 304 305 300 298 299 298 302 304 312 310 309 304 313 317 317 314 317 319 319 318
315 314 314 313 312 312 311 311 312 313 313 313 313 303 307 304 314 317 319 315 308 313 308 305 303 299 301 298 291 293 297 301 300 306 308 306 307 312 316 316 315 316 317 318 320
314 314 314 312 312 311 308 306 303 303 306 302 303 304 304 313 318 314 317 312 308 309 299 302 297 294 297 300 300 298 300 300 303 306 306 306 308 310 313 316 314 314 314 315 318
310 311 311 312 311 310 308 298 302 304 297 306 308 308 309 311 306 311 315 305 303 301 302 298 295 300 301 301 299 298 299 301 304 307 308 307 307 309 310 314 315 313 313 314 315
310 310 310 311 310 308 306 306 313 310 296 300 305 305 307 310 305 307 309 305 302 301 299 296 297 301 299 298 297 297 297 300 300 305 306 305 305 303 307 309 314 314 315 317 314
309 309 309 309 304 306 303 308 315 311 290 294 299 303 308 308 303 313 310 306 304 300 300 298 301 298 298 297 299 295 302 301 300 297 294 304 290 300 303 304 308 312 313 313 314
308 309 309 309 301 300 304 309 310 306 279 297 300 312 307 303 304 307 311 306 301 301 300 296 298 297 296 297 300 298 302 301 300 298 298 297 293 298 304 301 303 308 310 312 314
308 308 308 305 304 305 309 309 308 288 280 294 304 303 301 302 303 308 307 308 307 301 301 299 303 301 299 301 302 303 300 300 300 298 291 297 295 296 300 302 305 309 310 312 314
308 308 307 306 299 307 307 302 286 281 294 292 298 302 301 298 299 303 301 299 297 293 294 298 299 302 303 298 301 300 298 291 288 289 289 299 296 298 306 307 307 307 309 311 317
307 306 306 308 310 309 304 291 279 287 289 298 296 294 297 299 298 301 299 295 299 297 295 292 291 299 303 299 297 298 298 292 285 287 290 298 293 299 308 310 311 310 312 316 316
306 308 307 310 311 309 297 283 284 289 293 292 294 288 291 299 299 300 298 295 297 299 294 293 293 302 303 303 302 298 295 302 296 296 292 295 299 305 308 308 310 311 314 314 316
304 304 305 314 314 308 292 286 289 294 294 294 288 291 292 297 296 298 298 300 297 301 303 299 293 301 302 304 304 302 303 295 296 287 287 293 296 297 304 306 310 311 313 315 318
303 299 308 312 309 298 287 289 292 297 296 291 289 285 287 298 298 299 298 300 301 301 304 302 299 297 301 299 298 299 298 299 299 297 291 290 291 305 306 309 309 312 313 314 315
301 291 311 311 292 291 289 293 296 297 300 295 295 292 293 294 298 298 298 300 303 303 298 302 300 293 297 302 305 303 300 301 295 294 297 293 294 309 311 310 312 312 313 314 316
297 298 312 306 289 290 293 294 297 297 298 297 295 298 297 292 289 298 302 304 304 302 300 304 299 292 294 299 302 299 301 302 304 304 297 294 296 310 311 311 312 312 313 314 315
298 293 301 302 299 289 289 292 293 301 300 301 299 299 298 296 295 296 301 303 303 302 309 309 302 297 291 295 300 297 300 302 302 297 297 297 301 306 309 309 311 312 313 313 314
302 296 297 290 292 292 293 293 291 293 302 303 297 295 297 293 293 294 300 302 303 305 304 306 298 301 301 302 301 300 300 300 299 300 297 296 302 305 306 307 311 314 312 312 312
297 294 296 292 295 293 292 289 289 292 298 297 297 296 297 294 292 291 302 302 300 303 302 306 298 299 295 300 300 299 300 301 302 303 302 301 300 309 310 311 309 310 311 310 311
303 304 297 292 293 290 288 288 288 293 300 301 298 294 293 295 298 299 306 308 306 303 302 303 298 295 290 295 298 295 298 301 303 305 302 297 303 309 307 308 309 309 309 308 310

GFSSW_sfc_thetae_129.txt.gz
Theta_e
318 318 319 319 318 318 318 317 318 318 319 319 319 319 318 317 317 312 303 309 311 321 322 311 308 308 310 305 306 305 297 295 298 300 304 313 313 320 323 317 318 333 336 339 342
317 317 318 319 318 318 318 317 318 318 318 318 319 319 319 317 310 305 315 322 321 326 314 306 303 303 302 302 302 299 295 298 303 305 305 310 313 313 316 313 316 328 341 344 344
317 317 316 317 317 318 317 317 317 317 318 318 318 318 318 316 304 306 328 325 326 326 311 308 306 302 296 300 300 299 296 301 304 307 309 310 314 318 312 307 312 312 323 340 338
316 316 316 316 316 316 317 317 316 317 317 317 317 317 317 310 293 303 333 333 327 320 308 303 302 295 295 295 301 296 301 303 305 308 308 309 312 315 314 311 316 318 321 337 336
316 316 316 316 315 315 316 316 316 315 316 316 315 316 312 303 302 314 329 333 322 314 305 301 297 295 292 297 299 298 300 303 306 307 305 311 309 310 312 315 316 318 319 321 334
316 316 315 315 315 314 315 315 315 315 315 315 315 315 307 297 313 316 316 318 317 311 306 302 298 300 295 296 298 299 300 301 304 305 309 307 310 310 312 315 314 315 316 318 329
316 316 315 315 315 314 314 313 313 314 314 315 315 311 304 299 313 315 312 311 313 311 304 306 304 300 299 295 300 300 296 300 302 304 305 309 306 307 313 313 311 313 315 318 321
315 315 315 315 314 314 314 313 312 312 313 314 315 309 298 311 312 310 310 310 315 312 308 306 306 301 299 299 298 295 295 291 299 303 308 307 299 308 312 312 310 312 314 317 318
314 314 314 314 315 314 313 313 312 312 312 313 308 305 296 313 307 310 311 310 313 311 311 312 304 299 299 294 291 293 289 291 295 306 306 305 299 307 311 311 312 313 313 315 317
311 311 311 312 312 312 312 312 311 312 308 309 308 300 303 301 308 312 312 312 310 307 307 306 299 294 294 291 285 288 289 292 293 302 304 302 301 307 311 311 311 311 313 314 316
309 310 310 311 311 311 308 303 295 298 302 298 298 299 302 307 311 308 313 310 310 304 299 300 293 288 291 293 294 294 292 291 298 304 302 301 302 304 309 310 310 310 312 312 313
308 309 309 310 310 310 306 297 297 299 294 301 303 303 306 307 302 307 315 305 304 296 300 294 289 295 297 296 295 294 292 291 300 304 302 301 301 305 308 311 312 311 311 312 311
308 309 309 309 309 304 300 300 308 309 295 298 300 301 302 306 301 303 310 307 300 296 295 293 293 299 296 294 293 293 292 293 295 302 305 302 297 300 306 311 312 313 314 314 312
308 308 309 309 301 301 296 304 305 309 287 291 296 298 301 303 298 309 309 307 300 295 296 296 299 296 295 293 295 290 297 299 299 297 292 302 286 297 302 304 308 310 312 313 311
308 309 308 308 300 296 298 302 304 302 273 291 297 306 301 298 301 303 310 307 297 296 297 295 295 294 293 295 297 293 298 296 298 294 294 297 292 296 303 303 303 306 311 313 311
308 309 308 303 301 302 304 304 302 283 273 287 296 293 295 297 299 305 304 307 304 299 300 299 301 298 296 298 298 299 295 296 296 294 287 292 293 293 296 303 301 303 309 313 313
309 309 307 306 297 303 303 298 284 275 289 287 289 292 292 294 296 300 299 295 292 290 292 297 296 299 299 294 297 295 290 285 284 285 284 294 292 294 299 302 303 303 306 309 313
308 307 305 306 307 306 301 290 277 284 285 292 291 292 289 296 295 297 298 292 296 295 292 289 286 295 299 294 292 292 290 284 279 282 286 294 289 293 303 305 305 305 305 306 308
306 303 306 308 310 306 294 282 280 285 290 288 290 287 289 295 295 295 296 294 296 297 290 289 290 299 299 299 297 292 288 292 288 291 284 288 295 303 303 303 304 304 305 307 309
302 301 304 310 310 303 290 284 286 292 293 292 285 288 284 286 286 293 296 299 296 299 299 295 289 297 299 300 298 294 296 287 291 283 281 289 292 293 299 300 303 306 307 308 311
300 295 307 309 307 297 286 286 290 296 296 292 289 286 287 286 288 291 295 298 299 298 299 295 293 293 297 294 291 292 291 292 294 292 286 285 290 300 301 302 303 306 308 307 311
299 291 308 308 292 290 287 291 295 294 297 296 294 291 288 287 289 294 295 298 301 299 293 296 295 290 293 298 299 295 292 293 288 287 292 291 291 304 305 307 307 307 307 308 309
294 296 309 305 287 287 292 292 294 294 297 296 294 294 294 286 290 298 299 304 301 297 295 298 292 286 289 294 298 294 296 295 294 296 292 288 290 306 308 308 308 306 307 308 309
297 292 296 299 298 291 288 291 290 298 300 301 298 298 292 292 295 293 297 304 301 299 311 305 295 291 286 290 293 292 296 295 295 287 292 293 297 302 305 305 307 307 307 308 309
300 293 295 288 290 291 293 291 288 290 298 302 298 296 295 292 292 293 298 300 300 307 299 300 292 297 298 300 299 294 295 295 293 295 292 297 297 301 304 306 306 309 309 308 309
294 294 296 292 293 292 291 288 288 290 293 296 294 295 296 293 293 291 296 300 295 298 297 300 293 296 294 299 298 297 297 299 300 301 298 299 299 308 308 309 309 309 310 307 307
301 302 298 293 292 290 289 288 289 296 299 299 298 296 293 294 297 297 299 298 298 297 296 298 295 292 289 295 296 290 295 299 301 301 300 294 301 307 305 307 307 308 310 306 307

GFSSW_sfc_thetae_132.txt.gz
Theta_e
317 317 317 318 319 319 318 318 317 317 317 317 318 319 319 319 318 310 303 309 310 318 320 310 307 304 305 302 304 302 292 290 293 296 299 307 305 315 320 315 316 328 330 336 341
317 317 317 317 317 318 318 318 318 317 315 317 318 318 318 318 309 305 314 320 321 322 314 306 301 301 298 300 301 296 291 294 299 301 298 305 310 311 313 313 312 315 322 330 341
317 316 316 316 316 317 317 316 316 317 317 317 317 317 318 315 304 304 321 326 323 322 315 308 304 299 293 295 297 294 293 297 299 304 305 306 309 314 311 307 311 312 326 340 340
316 316 316 316 316 316 315 315 315 315 315 317 316 316 317 310 293 307 333 331 327 318 313 304 300 292 291 292 296 292 298 298 299 303 302 304 309 311 312 308 316 318 335 325 328
316 316 317 316 316 316 315 314 314 314 315 315 315 315 311 301 300 313 323 319 322 316 310 300 294 292 288 291 293 293 295 298 301 301 300 307 307 308 309 314 314 317 319 325 326
315 315 315 315 315 315 315 314 314 313 313 313 314 315 305 294 309 311 312 312 317 313 308 300 297 296 291 291 294 295 297 298 299 299 300 304 306 309 310 314 313 313 315 323 333
313 313 314 314 314 315 315 314 313 313 312 312 313 311 303 298 309 311 309 307 309 314 304 304 302 297 296 290 295 297 292 295 298 299 300 307 303 305 311 312 311 312 313 317 326
311 311 311 311 311 313 314 314 314 313 313 313 313 307 297 308 310 307 308 307 309 309 309 307 305 297 294 296 294 292 290 289 295 298 300 304 295 305 310 309 309 311 313 315 316
309 310 311 309 310 310 311 312 312 312 313 313 305 302 294 310 305 307 308 304 307 309 310 311 301 295 295 290 285 287 286 287 291 297 302 303 297 305 309 309 308 309 310 313 314
309 309 309 309 309 310 310 310 310 310 307 307 305 297 300 297 306 308 310 307 304 308 305 302 294 290 289 286 282 283 285 287 288 293 300 299 299 305 308 308 308 309 310 312 313
309 309 308 309 309 309 306 300 292 292 300 296 295 296 298 304 307 306 311 306 304 305 295 298 291 287 289 290 291 290 289 288 291 295 301 299 300 303 306 307 306 307 308 310 312
308 308 308 309 309 309 303 294 295 298 291 300 300 300 301 303 297 302 309 300 299 295 297 295 291 294 295 293 291 290 288 287 291 301 300 298 298 303 305 304 306 308 309 310 311
309 309 308 309 309 303 297 297 304 304 292 295 298 298 299 302 297 298 305 304 299 296 295 293 295 299 294 292 290 290 288 288 289 300 301 299 296 298 303 306 308 309 311 311 312
309 309 309 309 301 296 294 299 301 303 285 288 294 299 300 300 295 306 306 304 301 295 296 295 297 296 293 291 292 287 293 293 293 295 289 300 287 295 299 302 304 306 309 311 311
309 309 309 308 301 297 298 301 300 299 273 289 295 305 301 295 296 297 308 303 298 297 295 291 296 293 291 292 294 290 295 293 293 292 290 293 287 292 299 298 301 304 307 311 310
309 309 308 305 302 301 302 302 298 284 273 285 294 292 291 295 295 299 302 306 306 298 297 295 302 297 294 297 296 296 292 291 291 291 283 290 291 289 295 299 301 304 308 310 311
309 309 307 306 298 304 299 294 283 273 288 286 288 291 290 291 292 293 297 296 294 289 288 293 295 299 298 293 295 293 286 279 279 281 283 293 289 291 297 301 303 304 307 309 310
307 307 304 305 305 306 299 286 276 283 284 290 291 292 287 292 292 291 296 292 297 293 289 286 285 294 298 292 290 290 287 280 278 279 284 294 286 291 300 303 303 307 306 306 308
306 299 300 307 310 305 294 281 279 285 289 289 290 286 287 290 289 291 294 294 296 295 289 289 289 300 299 297 294 288 284 289 284 287 285 286 291 298 300 300 301 300 302 302 304
300 296 299 309 309 302 289 284 286 291 292 292 285 289 284 287 287 290 293 298 296 297 297 293 288 295 298 298 296 290 292 285 286 279 280 286 289 289 298 298 299 299 301 309 317
294 291 303 307 307 296 286 288 289 294 296 292 289 286 287 286 287 289 293 298 298 297 298 293 289 291 295 292 289 287 286 288 289 287 281 280 286 298 299 302 299 301 306 314 315
297 288 304 305 293 290 286 291 294 294 298 295 295 291 288 289 287 290 293 298 300 299 293 294 291 286 289 294 297 292 288 290 284 285 289 286 286 303 303 302 305 306 313 315 315
294 293 304 303 286 287 292 292 294 294 294 294 293 293 294 287 288 292 297 303 301 298 295 292 286 283 285 290 294 289 291 290 293 294 290 286 289 306 306 306 306 309 311 310 313
297 290 292 295 296 290 288 290 290 297 298 300 297 296 291 289 291 294 298 302 303 300 310 301 291 288 283 288 292 289 291 293 292 287 291 292 294 298 304 305 305 305 307 308 309
294 289 294 287 290 291 292 290 288 290 296 300 297 294 294 291 292 293 297 299 302 306 300 296 291 294 296 297 297 294 293 295 294 295 291 296 296 300 305 306 306 307 308 307 307
293 292 295 293 293 291 291 289 289 291 293 295 294 295 295 291 292 291 294 294 293 295 296 298 291 294 292 297 296 295 298 300 300 299 298 299 299 305 308 309 308 308 307 306 306
299 300 296 292 290 290 289 291 291 295 298 298 297 295 293 295 298 296 298 296 297 295 295 295 293 288 288 294 295 289 294 297 298 301 300 295 301 307 306 308 308 307 308 305 306

GFSSW_sfc_thetae_135.txt.gz
Theta_e
317 317 317 317 317 317 317 317 317 317 315 316 316 317 317 318 317 309 303 308 310 319 320 310 305 304 303 300 303 301 291 288 292 294 297 304 302 309 315 313 313 318 325 332 345
317 317 317 317 317 317 316 316 316 316 316 316 317 317 316 317 308 304 313 319 321 320 311 304 299 299 295 298 299 295 289 291 297 299 298 303 306 309 311 310 310 315 336 338 337
318 317 317 317 317 317 316 316 315 315 315 316 316 316 316 314 302 303 324 323 325 322 314 307 302 297 292 294 296 293 291 297 298 302 302 302 303 310 307 304 310 314 333 335 335
314 315 316 316 316 316 316 315 315 315 314 314 315 315 315 310 288 305 325 320 327 318 313 306 298 292 290 291 294 290 296 298 299 301 301 302 304 306 310 307 315 326 322 331 334
311 312 312 313 314 315 315 315 315 315 314 313 313 314 310 300 298 309 319 315 319 315 309 299 294 291 288 290 291 291 293 297 300 300 298 304 302 305 307 311 315 319 325 326 329
309 310 310 311 311 312 313 313 314 315 314 313 313 313 304 293 308 310 309 309 313 311 308 300 295 294 290 289 292 292 295 296 297 297 297 298 299 306 307 312 312 316 324 325 327
308 308 308 309 309 310 311 311 312 313 314 314 314 309 299 295 308 309 308 305 307 310 307 306 300 296 294 289 292 294 289 291 296 295 295 300 299 302 308 310 309 311 317 326 324
309 309 308 308 308 308 309 310 311 310 311 313 314 307 294 305 306 305 307 305 307 307 305 307 302 296 292 293 292 290 288 284 291 295 296 300 292 299 309 308 307 310 312 319 322
310 310 309 308 308 308 309 310 309 309 310 311 305 301 293 306 302 306 306 302 304 306 306 310 301 294 293 288 284 285 281 284 289 294 296 297 291 300 307 307 306 308 310 312 315
309 309 309 308 308 308 309 309 307 307 306 306 304 295 297 295 302 306 307 305 301 303 301 302 294 289 286 285 281 281 283 285 287 292 295 294 295 301 306 307 306 306 308 310 313
308 309 309 309 308 309 306 299 290 289 295 293 294 293 296 302 305 303 308 303 301 301 294 298 290 285 287 288 289 288 286 286 288 293 295 293 296 301 305 305 305 305 306 309 312
309 309 309 309 309 309 304 295 293 298 291 298 298 297 299 301 295 299 306 298 296 292 297 292 289 291 291 291 290 288 285 285 289 293 294 293 295 301 303 303 304 305 305 307 311
309 310 309 309 309 301 296 296 302 302 288 292 296 296 297 300 295 296 301 300 293 293 294 290 293 295 292 289 288 288 285 286 288 297 298 296 293 296 302 304 305 306 307 309 309
309 309 310 310 303 298 295 298 298 302 284 286 292 297 299 300 294 302 302 301 297 292 296 292 297 295 292 289 290 285 291 291 292 292 287 297 284 292 297 299 302 303 304 306 309
308 309 309 308 302 298 299 298 302 295 271 288 294 305 299 294 295 297 304 298 294 295 295 291 293 294 291 290 292 288 293 291 291 290 289 291 287 290 296 296 299 301 303 305 307
308 309 308 305 302 303 302 302 296 283 273 285 294 293 292 294 293 297 298 303 302 297 297 295 300 298 296 296 294 295 291 289 288 286 281 288 287 287 290 294 297 300 303 305 307
308 308 306 305 299 305 300 293 280 274 287 284 288 292 291 289 291 292 293 294 293 289 289 293 295 297 299 292 293 292 285 277 276 278 279 289 287 290 295 298 299 301 302 305 307
307 307 302 304 306 307 300 288 275 282 284 290 290 290 287 291 289 291 290 291 298 293 289 286 285 294 296 292 288 288 284 278 275 277 280 290 284 289 297 300 301 302 303 304 306
306 297 297 303 310 305 293 279 280 284 288 288 289 286 288 290 290 289 289 292 295 295 288 287 287 296 297 295 293 286 283 287 283 285 281 284 289 295 302 303 304 299 301 303 304
300 293 296 307 308 301 289 283 286 291 292 291 286 288 283 287 288 288 291 296 296 298 296 291 285 295 297 297 295 291 292 284 282 278 277 283 287 288 296 299 303 297 299 304 315
293 290 299 307 305 296 285 288 290 295 295 292 289 286 288 286 288 288 292 296 299 298 297 293 291 291 296 291 286 286 284 286 286 283 278 277 283 296 297 301 301 298 309 315 316
298 286 299 303 292 292 286 291 294 293 297 295 293 291 289 290 287 290 292 296 301 300 291 293 290 283 288 293 295 289 288 289 282 283 285 282 283 301 300 305 302 308 314 315 315
294 292 300 300 286 286 291 292 294 293 293 290 289 292 293 288 286 291 296 302 301 298 293 293 285 281 284 289 290 288 288 290 289 288 285 281 284 303 303 306 306 310 313 312 310
291 286 292 294 296 290 288 290 290 296 296 298 296 294 290 290 292 292 296 302 303 297 307 300 289 286 280 285 289 286 289 293 290 283 287 288 290 298 302 304 306 306 312 309 309
292 289 295 287 290 291 292 290 290 291 296 299 295 295 294 291 293 291 297 298 300 308 297 293 288 292 293 296 295 292 290 290 290 290 287 293 294 298 301 302 306 306 307 306 305
289 291 295 292 293 291 291 290 290 293 294 293 293 296 295 291 292 291 293 293 292 295 295 294 288 292 291 295 296 294 296 296 295 295 296 298 296 304 306 309 308 305 306 305 305
296 300 295 293 290 289 289 291 292 295 297 297 297 296 293 294 298 298 297 295 295 292 294 293 290 287 284 292 292 287 292 295 298 299 299 294 298 304 305 307 306 304 305 304 305